Tracking 34717 objects as of 14-Jul-2026
HD Live streaming from Space Station
objects crossing your sky now

CZ-4 DEB

Track CZ-4 DEB now!
10-day predictions


NORAD ID: 37613
Int'l Code: 1990-081CZ
Perigee: 757.0 km
Apogee: 971.2 km
Inclination: 98.9 °
Period: 102.1 minutes
Semi major axis: 7235 km
RCS: 0.0075 m2 (small)
Launch date: September 3, 1990
Source: People's Republic of China (PRC)
Launch site: Taiyaun Space Center, China (TSC)

Note: This is SATELLITE DEBRIS
Your satellite tracking list
Your tracking list is empty




NASA's NSSDC Master Catalog

Two Line Element Set (TLE):
1 37613U 90081CZ  26194.78480646  .00001464  00000-0  76210-3 0  9997
2 37613  98.8534  20.7414 0147989 333.6971  25.6738 14.10703513136441
Source of the keplerian elements: AFSPC